Simultaneous Nadir Overpasses (SNOs) Predictions

Prediction of SNOs between NOAA-19 and TERRA Satellite Orbit:

Table of predicted SNOs for the next 14.0 days since TLE Epoch: 1/30/2021
Index Date (NOAA-19) Time (NOAA-19) Lat,Lon (NOAA-19) SZA (NOAA-19 ) Date (TERRA) Time (TERRA) Lat,Lon (TERRA) SZA (TERRA ) Distance(km) Time Diff (sec)
1 02/01/2021 01:32:08 80.00,-171.12 98.19 02/01/2021 01:31:48 80.02,-171.06 98.21 2.85 20
2 02/03/2021 07:05:16 -80.01, -74.48 82.46 02/03/2021 07:05:31 -80.02, -74.48 82.44 1.30 15
3 02/05/2021 12:38:34 80.02, 22.16 96.88 02/05/2021 12:39:13 80.02, 22.07 96.88 1.64 39
4 02/05/2021 13:29:29 -80.01,-170.43 83.13 02/05/2021 13:28:41 -79.99,-170.55 83.18 3.38 48
5 02/07/2021 18:11:43 -80.04, 118.67 83.82 02/07/2021 18:12:56 -80.02, 118.64 83.81 2.36 73
6 02/07/2021 19:02:46 80.01, -73.60 96.18 02/07/2021 19:02:22 80.02, -73.75 96.17 3.14 24
7 02/10/2021 00:35:56 -80.04, 22.72 84.53 02/10/2021 00:36:05 -80.02, 22.82 84.55 3.22 9
8 02/12/2021 06:09:12 80.04, 119.57 94.75 02/12/2021 06:09:46 80.04, 119.56 94.76 0.27 34



Historial Predications of SNOs between NOAA-19 and TERRA
